Weather History for KACP - April, 2013

Change the Weather History Date:

Thursday, April 4, 2013

  Actual Average (KPOE) Record (KPOE)
Temperature  
Mean Temperature 50 °F -  
Max Temperature 53 °F 73 °F 84 °F (2001)
Min Temperature 46 °F 54 °F 44 °F (2013)
Degree Days  
Heating Degree Days 16    
Moisture  
Dew Point 43 °F    
Average Humidity 79    
Maximum Humidity 87    
Minimum Humidity 71    
Precipitation  
Precipitation 0.00 in - - ()
Sea Level Pressure  
Sea Level Pressure 30.07 in    
Wind  
Wind Speed 8 mph (NW)    
Max Wind Speed 12 mph    
Max Gust Speed 20 mph    
Visibility 10 miles    
Events      
Averages and records for this station are not official NWS values.
T = Trace of Precipitation, MM = Missing Value Source: NWS Daily Summary

Daily Weather History Graph

Daily Weather History Graph

Search for Another Location

Airport or City:

Trip Planner

Search our weather history database for the weather conditions in past years. The results will help you decide how hot, cold, wet, or windy it might be!

Date:

Astronomy

Apr. 04, 2013 Rise Set
Actual Time 6:55 AM CDT 7:31 PM CDT
Civil Twilight 6:31 AM CDT 7:56 PM CDT
Nautical Twilight 6:02 AM CDT 8:24 PM CDT
Astronomical Twilight 5:33 AM CDT 8:54 PM CDT
Moon 3:00 AM CDT (4/4) 2:11 PM CDT (4/4)
Length of Visible Light 13h 24m
Length of Day
12h 36m
Waning Crescent, 33% of the Moon is Illuminated
Apr 4
Waning Crescent
Apr 10
New
Apr 18
First Quarter
Apr 25
Full
May 2
Last Quarter

Hourly Weather History & Observations

Time (CDT) Temp. Windchill Dew Point Humidity Pressure Visibility Wind Dir Wind Speed Gust Speed Precip Events Conditions
12:15 PM 51.8 °F - 44.6 °F 76% 30.08 in 10.0 mi NW 9.2 mph - N/A   Unknown
12:35 PM 51.8 °F - 44.6 °F 76% 30.07 in 10.0 mi NNW 9.2 mph - N/A   Overcast
12:55 PM 51.8 °F - 44.6 °F 76% 30.06 in 10.0 mi NW 5.8 mph - N/A   Overcast
1:15 PM 53.6 °F - 44.6 °F 72% 30.05 in 10.0 mi NNW 8.1 mph - N/A   Overcast
1:35 PM 53.6 °F - 44.6 °F 72% 30.04 in 10.0 mi NW 8.1 mph - N/A   Overcast
1:55 PM 53.6 °F - 44.6 °F 72% 30.03 in 10.0 mi NNW 8.1 mph - N/A   Overcast
2:15 PM 53.6 °F - 44.6 °F 72% 30.03 in 10.0 mi WNW 5.8 mph - N/A   Overcast
2:35 PM 53.6 °F - 44.6 °F 72% 30.03 in 10.0 mi West 6.9 mph - N/A   Overcast
2:55 PM 51.8 °F - 44.6 °F 76% 30.03 in 10.0 mi West 6.9 mph - N/A   Overcast
3:15 PM 51.8 °F - 44.6 °F 76% 30.03 in 10.0 mi NW 8.1 mph - N/A   Overcast
3:35 PM 51.8 °F - 44.6 °F 76% 30.03 in 10.0 mi NW 8.1 mph - N/A   Overcast
3:55 PM 51.8 °F - 42.8 °F 71% 30.03 in 10.0 mi NW 10.4 mph 18.4 mph N/A   Overcast
4:15 PM 51.8 °F - 42.8 °F 71% 30.03 in 10.0 mi WNW 11.5 mph - N/A   Overcast
4:35 PM 50.0 °F - 42.8 °F 76% 30.03 in 10.0 mi WNW 11.5 mph 16.1 mph N/A   Overcast
4:55 PM 50.0 °F - 42.8 °F 76% 30.03 in 10.0 mi WNW 10.4 mph - N/A   Overcast
5:15 PM 50.0 °F - 42.8 °F 76% 30.04 in 10.0 mi WNW 10.4 mph - N/A   Overcast
5:35 PM 48.2 °F - 42.8 °F 82% 30.05 in 10.0 mi NW 11.5 mph 17.3 mph N/A   Overcast
5:55 PM 48.2 °F - 42.8 °F 82% 30.05 in 10.0 mi NW 8.1 mph 19.6 mph N/A   Overcast
6:15 PM 48.2 °F - 42.8 °F 82% 30.05 in 10.0 mi NW 11.5 mph 17.3 mph N/A   Overcast
6:35 PM 48.2 °F - 42.8 °F 82% 30.05 in 10.0 mi NW 9.2 mph - N/A   Overcast
6:55 PM 48.2 °F - 42.8 °F 82% 30.05 in 10.0 mi NW 10.4 mph - N/A   Overcast
7:15 PM 48.2 °F - 42.8 °F 82% 30.06 in 10.0 mi WNW 6.9 mph - N/A   Overcast
7:35 PM 48.2 °F - 42.8 °F 82% 30.06 in 10.0 mi NW 5.8 mph - N/A   Overcast
7:55 PM 48.2 °F - 42.8 °F 82% 30.06 in 10.0 mi NNW 6.9 mph - N/A   Overcast
8:15 PM 48.2 °F - 42.8 °F 82% 30.07 in 10.0 mi NNW 6.9 mph - N/A   Overcast
8:35 PM 48.2 °F - 42.8 °F 82% 30.09 in 10.0 mi NNW 8.1 mph - N/A   Overcast
8:55 PM 48.2 °F - 42.8 °F 82% 30.09 in 10.0 mi NNW 5.8 mph - N/A   Overcast
9:15 PM 48.2 °F - 42.8 °F 82% 30.10 in 10.0 mi NW 9.2 mph 16.1 mph N/A   Overcast
9:35 PM 48.2 °F - 42.8 °F 82% 30.10 in 10.0 mi NNW 10.4 mph - N/A   Overcast
9:55 PM 46.4 °F 43.5 °F 42.8 °F 87% 30.12 in 10.0 mi NNW 5.8 mph - N/A   Overcast
10:15 PM 46.4 °F 43.5 °F 42.8 °F 87% 30.12 in 10.0 mi NW 5.8 mph - N/A   Overcast
10:35 PM 46.4 °F 42.9 °F 42.8 °F 87% 30.12 in 10.0 mi NNW 6.9 mph - N/A   Overcast
10:55 PM 46.4 °F 42.4 °F 42.8 °F 87% 30.12 in 10.0 mi NNW 8.1 mph - N/A   Overcast
11:15 PM 46.4 °F 42.9 °F 42.8 °F 87% 30.13 in 10.0 mi NW 6.9 mph - N/A   Overcast
11:35 PM 46.4 °F 42.9 °F 42.8 °F 87% 30.13 in 10.0 mi NW 6.9 mph - N/A   Overcast
11:55 PM 46.4 °F 42.9 °F 42.8 °F 87% 30.13 in 10.0 mi NW 6.9 mph - N/A   Overcast